Milledgeville, GA

7:46 PM EST on December 09, 2019 (GMT -0500)
Baldwin County

Weather History for KMLJ - October, 2019

Change the Weather History Date:

Wednesday, October 30, 2019

  Actual Average (KOKZ) Record (KOKZ)
Temperature  
Mean Temperature 70 °F -  
Max Temperature 71 °F 70 °F 87 °F (2016)
Min Temperature 68 °F 48 °F 35 °F (2017)
Cooling Degree Days 4    
Growing Degree Days 20 (Base 50)    
Moisture  
Dew Point 69 °F    
Average Humidity 99    
Maximum Humidity 100    
Minimum Humidity 94    
Precipitation  
Precipitation 0.00 in - - ()
Sea Level Pressure  
Sea Level Pressure 30.09 in    
Wind  
Wind Speed 2 mph ()    
Max Wind Speed 9 mph    
Max Gust Speed -    
Visibility 4.6 miles    
Events Rain    
Averages and records for this station are not official NWS values.
T = Trace of Precipitation, MM = Missing Value Source: Averaged Metar Reports

Daily Weather History Graph

Daily Weather History Graph

Search for Another Location

Airport or City:

Astronomy

Oct. 30, 2019 Rise Set
Actual Time 7:49 AM EDT 6:43 PM EDT
Civil Twilight 7:23 AM EDT 7:08 PM EDT
Nautical Twilight 6:54 AM EDT 7:38 PM EDT
Astronomical Twilight 6:25 AM EDT 8:06 PM EDT
Moon 10:25 AM EDT (10/30) 8:57 PM EDT (10/30)
Length of Visible Light 11h 45m
Length of Day
10h 54m
Waxing Crescent, 8% of the Moon is Illuminated
Oct 30
Waxing Crescent
Nov 4
First Quarter
Nov 12
Full
Nov 19
Last Quarter
Nov 26
New

Hourly Weather History & Observations

Time (EDT) Temp. Dew Point Humidity Pressure Visibility Wind Dir Wind Speed Gust Speed Precip Events Conditions
12:15 AM 68.0 °F 68.0 °F 100% 30.16 in 2.5 mi Calm Calm - N/A   Overcast
12:35 AM 68.0 °F 68.0 °F 100% 30.16 in 3.0 mi Calm Calm - N/A   Overcast
12:55 AM 68.0 °F 68.0 °F 100% 30.15 in 2.5 mi Calm Calm - N/A   Overcast
1:15 AM 68.0 °F 68.0 °F 100% 30.16 in 2.5 mi Calm Calm - N/A Rain Light Rain
1:35 AM 68.0 °F 68.0 °F 100% 30.15 in 5.0 mi Calm Calm - N/A   Light Drizzle
1:55 AM 68.0 °F 68.0 °F 100% 30.15 in 7.0 mi Calm Calm - N/A   Overcast
2:15 AM 68.0 °F 68.0 °F 100% 30.14 in 7.0 mi Calm Calm - N/A   Overcast
2:35 AM 68.0 °F 68.0 °F 100% 30.14 in 5.0 mi Calm Calm - N/A   Overcast
2:55 AM 69.8 °F 69.8 °F 100% 30.13 in 2.0 mi Calm Calm - N/A   Overcast
3:15 AM 69.8 °F 69.8 °F 100% 30.13 in 3.0 mi SE 4.6 mph - N/A   Overcast
3:35 AM 69.8 °F 69.8 °F 100% 30.13 in 5.0 mi ESE 3.5 mph - N/A   Overcast
3:55 AM 69.8 °F 69.8 °F 100% 30.13 in 10.0 mi Calm Calm - N/A   Overcast
4:15 AM 69.8 °F 69.8 °F 100% 30.12 in 10.0 mi ESE 5.8 mph - N/A   Overcast
4:35 AM 68.0 °F 68.0 °F 100% 30.12 in 7.0 mi ESE 4.6 mph - N/A Rain Light Rain
4:55 AM 68.0 °F 68.0 °F 100% 30.12 in 7.0 mi SE 3.5 mph - N/A   Drizzle
5:15 AM 68.0 °F 68.0 °F 100% 30.13 in 7.0 mi SE 4.6 mph - N/A Rain Light Rain
5:55 AM 68.0 °F 68.0 °F 100% 30.13 in 5.0 mi ESE 4.6 mph - N/A Rain Rain
6:15 AM 68.0 °F 68.0 °F 100% 30.13 in 7.0 mi ESE 4.6 mph - N/A Rain Rain
6:35 AM 68.0 °F 68.0 °F 100% 30.14 in 10.0 mi ESE 4.6 mph - N/A   Light Drizzle
6:55 AM 68.0 °F 68.0 °F 100% 30.14 in 10.0 mi ESE 4.6 mph - N/A   Drizzle
7:15 AM 68.0 °F 68.0 °F 100% 30.14 in 7.0 mi ESE 5.8 mph - N/A Rain Light Rain
7:35 AM 68.0 °F 68.0 °F 100% 30.14 in 7.0 mi ESE 6.9 mph - N/A Rain Light Rain
7:55 AM 68.0 °F 68.0 °F 100% 30.14 in 7.0 mi ESE 5.8 mph - N/A Rain Light Rain
8:15 AM 68.0 °F 68.0 °F 100% 30.14 in 7.0 mi ESE 5.8 mph - N/A Rain Rain
8:35 AM 68.0 °F 68.0 °F 100% 30.14 in 7.0 mi SE 3.5 mph - N/A   Light Drizzle
8:55 AM 68.0 °F 68.0 °F 100% 30.14 in 7.0 mi SE 3.5 mph - N/A   Light Drizzle
9:15 AM 68.0 °F 68.0 °F 100% 30.14 in 7.0 mi ESE 9.2 mph - N/A   Overcast
9:35 AM 68.0 °F 68.0 °F 100% 30.15 in 5.0 mi SE 3.5 mph - N/A   Overcast
9:55 AM 68.0 °F 66.2 °F 94% 30.15 in 7.0 mi SE 4.6 mph - N/A   Overcast
10:15 AM 68.0 °F 66.2 °F 94% 30.15 in 5.0 mi SE 4.6 mph - N/A Rain Light Rain
10:35 AM 68.0 °F 66.2 °F 94% 30.14 in 5.0 mi SSE 5.8 mph - N/A   Light Drizzle
10:55 AM 68.0 °F 66.2 °F 94% 30.13 in 5.0 mi SE 4.6 mph - N/A Rain Light Rain
11:15 AM 68.0 °F 66.2 °F 94% 30.13 in 5.0 mi SE 4.6 mph - N/A Rain Light Rain
11:35 AM 68.0 °F 66.2 °F 94% 30.13 in 5.0 mi SE 4.6 mph - N/A   Overcast
11:55 AM 68.0 °F 68.0 °F 100% 30.13 in 5.0 mi Calm Calm - N/A   Overcast
12:15 PM 68.0 °F 68.0 °F 100% 30.12 in 5.0 mi SSE 3.5 mph - N/A   Overcast
12:35 PM 68.0 °F 68.0 °F 100% 30.12 in 5.0 mi Calm Calm - N/A   Overcast
12:55 PM 68.0 °F 68.0 °F 100% 30.10 in 5.0 mi Calm Calm - N/A   Overcast
1:15 PM 68.0 °F 68.0 °F 100% 30.10 in 5.0 mi SSE 3.5 mph - N/A   Overcast
1:35 PM 68.0 °F 68.0 °F 100% 30.09 in 4.0 mi Calm Calm - N/A   Overcast
1:55 PM 69.8 °F 68.0 °F 94% 30.08 in 4.0 mi Calm Calm - N/A   Overcast
2:15 PM 69.8 °F 68.0 °F 94% 30.08 in 4.0 mi Calm Calm - N/A   Overcast
2:35 PM 69.8 °F 68.0 °F 94% 30.07 in 1.5 mi Calm Calm - N/A   Overcast
2:55 PM 69.8 °F 69.8 °F 100% 30.06 in 1.5 mi SSE 3.5 mph - N/A   Overcast
3:15 PM 69.8 °F 69.8 °F 100% 30.06 in 1.2 mi Calm Calm - N/A   Overcast
3:35 PM 69.8 °F 69.8 °F 100% 30.04 in 2.0 mi SE 3.5 mph - N/A   Overcast
3:55 PM 69.8 °F 69.8 °F 100% 30.04 in 4.0 mi SSE 4.6 mph - N/A   Overcast
4:15 PM 71.6 °F 69.8 °F 94% 30.04 in 4.0 mi South 3.5 mph - N/A   Overcast
4:35 PM 71.6 °F 69.8 °F 94% 30.04 in 4.0 mi South 4.6 mph - N/A   Overcast
4:55 PM 71.6 °F 69.8 °F 94% 30.03 in 4.0 mi South 4.6 mph - N/A   Overcast
5:15 PM 71.6 °F 71.6 °F 100% 30.03 in 4.0 mi Calm Calm - N/A   Overcast
5:35 PM 71.6 °F 71.6 °F 100% 30.03 in 4.0 mi SSE 4.6 mph - N/A   Overcast
5:55 PM 71.6 °F 71.6 °F 100% 30.02 in 3.0 mi Calm Calm - N/A   Overcast
6:15 PM 71.6 °F 71.6 °F 100% 30.03 in 5.0 mi SSE 4.6 mph - N/A   Overcast
6:35 PM 71.6 °F 71.6 °F 100% 30.03 in 5.0 mi South 4.6 mph - N/A   Overcast
6:55 PM 71.6 °F 71.6 °F 100% 30.02 in 5.0 mi South 4.6 mph - N/A   Overcast
7:15 PM 71.6 °F 71.6 °F 100% 30.02 in 4.0 mi South 3.5 mph - N/A   Overcast
7:35 PM 71.6 °F 71.6 °F 100% 30.03 in 4.0 mi Calm Calm - N/A   Overcast
7:55 PM 71.6 °F 71.6 °F 100% 30.03 in 4.0 mi Calm Calm - N/A   Overcast
8:15 PM 71.6 °F 71.6 °F 100% 30.03 in 4.0 mi SSE 4.6 mph - N/A   Overcast
8:35 PM 71.6 °F 71.6 °F 100% 30.03 in 3.0 mi Calm Calm - N/A   Overcast
9:15 PM 71.6 °F 71.6 °F 100% 30.03 in 2.5 mi Calm Calm - N/A   Overcast
9:35 PM 71.6 °F 71.6 °F 100% 30.03 in 1.8 mi Calm Calm - N/A Rain Light Rain
9:55 PM 71.6 °F 71.6 °F 100% 30.03 in 2.0 mi Calm Calm - N/A   Overcast
10:15 PM 71.6 °F 71.6 °F 100% 30.03 in 2.0 mi South 3.5 mph - N/A Rain Rain
10:35 PM 71.6 °F 71.6 °F 100% 30.03 in 1.8 mi Calm Calm - N/A Rain Light Rain
10:55 PM 71.6 °F 71.6 °F 100% 30.03 in 2.0 mi Calm Calm - N/A Rain Light Rain
11:15 PM 71.6 °F 71.6 °F 100% 30.03 in 1.2 mi Calm Calm - N/A   Overcast
11:35 PM 71.6 °F 71.6 °F 100% 30.02 in 1.5 mi SSE 3.5 mph - N/A Rain Light Rain
11:55 PM 71.6 °F 71.6 °F 100% 30.01 in 1.5 mi Calm Calm - N/A   Overcast